Location: Pinawa
(50.1500°N, 95.8830°W)
Time: 15:07:20
(UTC-05:00)

ISS - All Passes

Search period start: 28 May 2016 00:00
Search period end: 07 June 2016 00:00
Orbit: 402 x 404 km, 51.6° (Epoch: 28 May)

Date Brightness Start Highest point End Pass type
(mag) Time Alt. Az. Time Alt. Az. Time Alt. Az.
28 May - 00:24:12 10° W 00:27:29 80° NNW 00:30:46 10° ENE visible
28 May - 02:00:48 10° WNW 02:04:04 70° N 02:07:20 10° E visible
28 May - 03:37:19 10° WNW 03:40:28 46° SSW 03:43:37 10° SE visible
28 May - 05:15:42 10° SW 05:16:17 10° SW 05:16:52 10° SW daylight
28 May - 21:56:04 10° SSW 21:58:37 21° SE 22:01:09 10° E daylight
28 May - 23:31:27 10° WSW 23:34:43 80° SSE 23:38:00 10° ENE visible
29 May - 01:08:01 10° W 01:11:16 64° N 01:14:31 10° E visible
29 May - 02:44:31 10° WNW 02:47:47 69° SSW 02:51:01 10° ESE visible
29 May - 04:21:34 10° W 04:23:48 17° SW 04:26:01 10° S visible
29 May - 21:04:27 10° SSE 21:06:05 13° SE 21:07:43 10° ESE daylight
29 May - 22:38:47 10° SW 22:42:00 56° SSE 22:45:13 10° ENE visible
30 May - 00:15:11 10° W 00:18:27 66° N 00:21:43 10° E visible
30 May - 01:51:45 10° WNW 01:55:02 88° NNE 01:58:19 10° ESE visible
30 May - 03:28:25 10° W 03:31:14 27° SW 03:34:02 10° SSE visible
30 May - 21:46:16 10° SW 21:49:19 37° SSE 21:52:22 10° E daylight
30 May - 23:22:22 10° W 23:25:39 76° N 23:28:55 10° ENE visible
31 May - 00:58:58 10° WNW 01:02:15 72° N 01:05:31 10° E visible
31 May - 02:35:30 10° W 02:38:37 41° SSW 02:41:42 10° SE visible
31 May - 20:54:00 10° SSW 20:56:42 24° SE 20:59:25 10° E daylight
31 May - 22:29:36 10° WSW 22:32:52 87° SSE 22:36:09 10° ENE visible
01 Jun - 00:06:10 10° W 00:09:26 65° N 00:12:41 10° E visible
01 Jun - 01:42:41 10° WNW 01:45:55 62° SSW 01:49:09 10° ESE visible
01 Jun - 03:19:56 10° WSW 03:21:52 15° SW 03:23:49 10° S visible
01 Jun - 20:02:10 10° S 20:04:09 15° SE 20:06:09 10° ESE daylight
01 Jun - 21:36:53 10° WSW 21:40:07 63° SSE 21:43:22 10° ENE daylight
01 Jun - 23:13:21 10° W 23:16:37 65° N 23:19:52 10° E visible
02 Jun - 00:49:53 10° WNW 00:53:11 86° SSW 00:56:26 10° ESE visible
02 Jun - 02:26:39 10° W 02:29:19 23° SW 02:32:00 10° SSE visible
02 Jun - 20:44:19 10° SW 20:47:25 42° SSE 20:50:33 10° E daylight
02 Jun - 22:20:31 10° W 22:23:48 72° N 22:27:04 10° ENE visible
02 Jun - 23:57:06 10° WNW 00:00:23 76° N 00:03:39 10° E visible
03 Jun - 01:33:40 10° W 01:36:43 36° SSW 01:39:44 10° SE visible
03 Jun - 19:51:57 10° SSW 19:54:47 27° SE 19:57:37 10° E daylight
03 Jun - 21:27:43 10° WSW 21:30:59 87° NNW 21:34:16 10° ENE daylight
03 Jun - 23:04:18 10° W 23:07:34 67° N 23:10:50 10° E visible
04 Jun - 00:40:48 10° WNW 00:44:01 55° SSW 00:47:13 10° SE visible
04 Jun - 02:18:21 10° WSW 02:19:55 13° SW 02:21:28 10° SSW visible
04 Jun - 18:59:56 10° S 19:02:12 18° SE 19:04:28 10° E daylight
04 Jun - 20:34:58 10° WSW 20:38:13 70° SSE 20:41:30 10° ENE daylight
04 Jun - 22:11:29 10° W 22:14:45 64° N 22:18:00 10° E visible
04 Jun - 23:48:01 10° WNW 23:51:17 79° SSW 23:54:33 10° ESE visible
05 Jun - 01:24:52 10° W 01:27:22 21° SW 01:29:54 10° SSE visible
05 Jun - 18:08:53 10° SSE 18:09:41 11° SE 18:10:29 10° ESE daylight
05 Jun - 19:42:20 10° SW 19:45:30 47° SSE 19:48:40 10° ENE daylight
05 Jun - 21:18:38 10° W 21:21:55 69° N 21:25:11 10° ENE daylight
05 Jun - 22:55:13 10° WNW 22:58:30 81° NNE 23:01:47 10° E visible
06 Jun - 00:31:48 10° W 00:34:46 32° SSW 00:37:43 10° SSE visible
06 Jun - 18:49:53 10° SSW 18:52:50 31° SSE 18:55:47 10° E daylight
06 Jun - 20:25:48 10° WSW 20:29:05 82° NNW 20:32:23 10° ENE daylight
06 Jun - 22:02:25 10° WNW 22:05:41 69° N 22:08:56 10° E daylight
06 Jun - 23:38:55 10° WNW 23:42:06 49° SSW 23:45:16 10° SE visible
